{"data":{"norad_id":56343,"intl_designator":"2023-058AC","name":"STARLINK-5976","alt_names":[],"object_type":"PAYLOAD","status":"ACTIVE","operator":null,"country":"US","launch_date":"2023-04-27","launch_site_code":"AFWTR","launch_vehicle":null,"mission":null,"orbit_class":"UNKNOWN","rcs_meters":null,"size_class":null,"mass_kg":null,"dimensions":null,"purposes":["comms"],"wikipedia_slug":null,"has_3d_model":false,"image_url":null,"decayed_at":null,"tle_current":{"epoch":"2026-09-20T11:44:16.448928Z","epoch_age_seconds":109600,"freshness":"FRESH","line1":"1 56343U 23058AC  26263.48907927  .00000806  00000+0  27285-4 0  9995","line2":"2 56343  97.2841 260.2465 0001646  91.7576 268.3856 15.33438310187635","mean_motion":15.3343831,"eccentricity":0.0001646,"inclination_deg":97.2841,"raan_deg":260.2465,"arg_perigee_deg":91.7576,"mean_anomaly_deg":268.3856,"bstar":2.7285e-5,"rev_number":18763,"period_min":93.90661434564,"perigee_km":464.43660625063,"apogee_km":466.68955231673,"semimajor_km":6843.7000792837,"source":"CELESTRAK","updated_at":"2026-09-21T09:00:33.405713Z"}}}